Location: Stuttgart
(48.8069°N, 9.1544°E)
Time: 14:34:16
(UTC+02:00)

ISS - Visible Passes

Search period start: 24 July 2017 00:00
Search period end: 03 August 2017 00:00
Orbit: 400 x 408 km, 51.6° (Epoch: 24 July)

Date Brightness Start Highest point End Pass type
(mag) Time Alt. Az. Time Alt. Az. Time Alt. Az.
24 Jul -3.0 00:59:44 10° W 01:02:56 52° N 01:06:09 10° ENE visible
24 Jul -3.4 02:36:27 10° WNW 02:39:41 62° NNE 02:42:56 10° E visible
24 Jul -3.4 04:13:01 10° WNW 04:16:06 38° SSW 04:19:08 10° SE visible
24 Jul -3.4 22:31:05 10° SW 22:34:09 39° SSE 22:37:14 10° ENE visible
25 Jul -3.4 00:07:20 10° W 00:10:34 61° NNW 00:13:48 10° ENE visible
25 Jul -3.1 01:44:06 10° WNW 01:47:19 52° N 01:50:31 10° E visible
25 Jul -3.9 03:20:38 10° WNW 03:23:52 60° SSW 03:27:05 10° SE visible
25 Jul -1.9 04:58:23 10° WSW 04:59:48 12° SW 05:01:13 10° SSW visible
25 Jul -3.8 23:14:57 10° WSW 23:18:12 79° NNW 23:21:28 10° ENE visible
26 Jul -2.9 00:51:43 10° WNW 00:54:54 49° N 00:56:44 22° ENE visible
26 Jul -1.7 02:28:17 10° WNW 02:29:16 18° WNW 02:29:16 18° WNW visible
26 Jul -3.9 22:22:38 10° WSW 22:25:53 73° SSE 22:29:08 10° ENE visible
26 Jul -3.0 23:59:18 10° W 00:02:29 50° N 00:05:20 12° ENE visible
27 Jul -2.4 01:35:58 10° WNW 01:37:56 33° WNW 01:37:56 33° WNW visible
27 Jul -3.2 23:06:51 10° W 23:10:04 57° N 23:13:18 10° ENE visible
28 Jul -3.2 00:43:36 10° WNW 00:46:49 55° N 00:46:57 54° NNE visible
28 Jul -3.6 22:14:25 10° WSW 22:17:40 72° NNW 22:20:56 10° ENE visible
28 Jul -3.0 23:51:11 10° WNW 23:54:22 49° N 23:56:05 23° ENE visible
29 Jul -1.5 01:27:44 10° WNW 01:28:42 18° WNW 01:28:42 18° WNW visible
29 Jul -2.9 22:58:44 10° W 23:01:55 49° N 23:05:06 10° ENE visible
30 Jul -3.1 00:35:22 10° WNW 00:37:53 49° NW 00:37:53 49° NW visible
30 Jul -3.1 22:06:15 10° W 22:09:27 54° N 22:12:40 10° ENE visible
30 Jul -3.3 23:42:59 10° WNW 23:46:12 58° NNE 23:47:07 40° ENE visible
31 Jul -1.0 01:19:31 10° WNW 01:19:44 11° WNW 01:19:44 11° WNW visible
31 Jul -3.0 22:50:32 10° WNW 22:53:44 50° N 22:56:21 14° E visible
01 Aug -2.4 00:27:04 10° WNW 00:28:58 32° W 00:28:58 32° W visible
01 Aug -2.9 21:58:03 10° WNW 22:01:15 48° N 22:04:25 10° ENE visible
01 Aug -3.9 23:34:39 10° WNW 23:37:56 83° NNE 23:38:14 70° E visible
02 Aug -3.5 22:42:14 10° WNW 22:45:28 63° NNE 22:47:30 21° E visible
